Location: Borovice
(49.5673°N, 12.9427°E)
Time: 19:08:18
(UTC+00:00)

Daily predictions for brighter satellites

Satellite Brightness Start Highest point End
(mag) Time Altitude Azimuth Time Altitude Azimuth Time Altitude Azimuth
SJ-11-01 4.5 17:20:19 10° SE 17:24:52 52° ENE 17:29:27 10° N
ERBS 2.2 17:22:00 10° SW 17:25:18 83° SSE 17:28:38 10° ENE
Cosmos 1867 4.2 17:21:23 10° SW 17:26:45 58° NW 17:32:11 10° NE
Cosmos 1666 Rocket 3.5 17:23:05 10° S 17:27:21 61° E 17:31:37 10° NNE
Cosmos 1862 Rocket 3.8 17:23:22 10° N 17:27:46 52° ENE 17:32:09 10° SSE
BREEZE-M DEB (TANK) 4.1 17:23:34 10° SSW 17:28:02 20° SSE 17:30:28 10° ESE
CZ-2C R/B 3.6 17:23:33 10° S 17:29:15 73° WSW 17:34:46 10° NNW
Cosmos 2322 Rocket 2.5 17:26:26 10° S 17:31:43 44° ESE 17:37:02 10° NE
Aureole 2 Rocket 2.3 17:29:44 10° N 17:32:07 32° ENE 17:34:24 10° SE
Sich 1 3.4 17:30:31 10° SSW 17:34:54 72° W 17:39:21 10° N
Nadezhda 3 Rocket 4.1 17:28:41 10° N 17:34:59 59° ENE 17:41:15 10° SSE
Cosmos 1461 3.2 17:32:10 10° SW 17:36:56 89° NW 17:41:42 10° NE
ATLAS 5 CENTAUR R/B 3.7 17:22:42 10° SW 17:37:34 67° NW 17:41:33 10° NE
Meteor 1-25 Rocket 4.2 17:33:08 10° S 17:38:51 70° E 17:44:30 10° NNE
COSMOS 2428 4.4 17:41:35 10° ESE 17:42:30 10° E 17:42:30 10° E
Cosmos 2074 Rocket 4.0 17:36:41 10° S 17:42:57 83° E 17:49:14 10° N
Cosmos 2154 Rocket 4.1 17:37:10 10° S 17:43:12 57° E 17:49:16 10° NNE
Abrixas rocket 1.8 17:41:37 10° WSW 17:44:05 55° S 17:45:57 15° E
YAOGAN 1 2.5 17:39:54 10° SSE 17:44:13 83° ENE 17:48:34 10° NNW
Helios 1A Rocket 3.1 17:40:30 10° SE 17:44:24 50° ENE 17:48:20 10° N
FALCON 9 DEB 3.7 17:42:48 10° WNW 17:45:51 43° N 17:48:33 13° ENE
COSMO-SKYMED 1 3.2 17:44:44 10° N 17:49:03 61° WNW 17:53:19 10° SSW
Cosmos 2219 Rocket 3.6 17:46:44 10° SE 17:49:38 14° E 17:52:33 10° ENE
SJ-6B 4.2 17:46:54 10° ESE 17:50:01 22° ENE 17:53:10 10° NNE
GP-B 3.6 17:47:41 10° SE 17:51:44 36° E 17:55:49 10° NNE
Cosmos 2263 Rocket 3.9 17:49:33 10° NW 17:54:35 36° WSW 17:59:35 10° S
Meteor 1-18 Rocket 4.3 17:49:18 10° N 17:55:16 82° ENE 18:01:12 10° SSE
Cosmos 1992 Rocket 4.1 17:50:28 10° S 17:55:34 57° ESE 18:00:42 10° NNE
Cosmos 968 Rocket 4.0 17:50:21 10° NNW 17:55:35 64° WSW 18:00:47 10° S
SL-16 R/B 2.2 17:50:31 10° SSW 17:56:11 82° ESE 18:01:54 10° NNE
ARGOS 3.1 17:51:54 10° SSE 17:57:20 81° ENE 18:02:47 10° NNW
FALCON 9 DEB 3.7 17:55:20 10° WNW 17:58:24 42° N 18:00:32 17° ENE
USA 234 4.0 17:52:43 10° ENE 17:58:26 31° SE 18:04:08 10° S
Cosmos 1486 Rocket 4.4 17:54:05 10° NNW 17:59:20 67° WSW 18:04:36 10° S
Cosmos 1515 3.8 17:55:45 10° NNW 17:59:35 77° W 18:03:23 10° S
Okean 1 3.4 17:55:38 10° NNW 17:59:40 81° W 18:03:42 10° S
SJ 16-02 3.1 17:58:53 10° NNE 18:01:27 15° NE 18:02:34 14° ENE
SeaSat 1 2.7 17:57:04 10° NE 18:01:49 44° ESE 18:06:31 10° S
Okean 1-7 3.4 17:59:01 10° N 18:03:11 41° ENE 18:07:18 10° SE
Cosmos 1633 Rocket 3.4 17:59:01 10° SSW 18:03:25 72° W 18:07:52 10° N
Cosmos 2184 Rocket 4.2 17:57:25 10° SSW 18:03:35 75° W 18:09:50 10° N
OBJECT-B 2.2 18:03:22 19° ENE 18:03:42 19° ENE 18:06:06 10° NNE
CZ-2C R/B 2.7 18:01:48 10° NNE 18:07:13 55° E 18:12:29 10° S
CZ-4 R/B 2.5 18:05:02 10° S 18:08:44 45° W 18:12:32 10° NNW
H-2A R/B 2.8 18:03:23 10° S 18:08:46 61° W 18:14:11 10° NNW
SAR-Lupe-4 3.4 18:06:15 10° NNE 18:09:51 75° ESE 18:13:25 10° S
USA 305 3.6 18:07:47 10° W 18:11:55 46° N 18:14:50 18° ENE
DMSP B5D2-2 4.4 18:08:38 10° NNE 18:13:35 41° E 18:18:29 10° SSE
Gbstr 26 Del rocket 3.4 18:10:11 10° W 18:14:39 70° N 18:18:27 19° ENE
SL-8 Rocket 4.3 18:09:26 10° SSE 18:15:13 42° E 18:20:59 10° NNE
Cosmos 2237 4.2 18:09:50 10° SSW 18:15:30 65° ESE 18:21:12 10° NNE
SL-4 R/B 1.6 18:13:31 10° WNW 18:17:04 72° NNE 18:18:38 30° E
Cosmos 962 Rocket 4.5 18:11:06 10° S 18:17:12 62° E 18:23:25 10° NNE
Cosmos 1869 Rocket 4.3 18:16:24 10° SSE 18:20:13 30° E 18:24:05 10° NNE
USA 307 3.6 18:19:07 10° WNW 18:23:15 46° N 18:25:41 22° ENE
USA 186 1.8 18:25:07 37° NNE 18:25:07 37° NNE 18:26:59 10° N
FALCON 9 DEB 3.4 18:21:17 10° WNW 18:24:41 60° SSW 18:26:13 28° SE
ATLAS CENTAUR R/B 1.1 18:21:38 10° SSW 18:25:09 54° SE 18:26:57 26° ENE
Cosmos 1339 Rocket 4.5 18:19:48 10° N 18:25:57 62° ENE 18:32:09 10° SSE
Cosmos 1354 Rocket 4.1 18:20:49 10° NNW 18:26:05 78° WSW 18:31:18 10° SSE
USA 306 3.6 18:22:33 10° WNW 18:26:40 45° N 18:28:56 23° ENE
ERS-2 2.5 18:23:28 10° N 18:27:06 64° WNW 18:30:43 10° SSW
Okean-O 4.1 18:24:27 10° SSW 18:28:37 39° W 18:32:48 10° NNW
FALCON 9 DEB 3.6 18:25:54 10° WNW 18:28:58 44° N 18:29:48 35° NE
Cosmos 1378 4.2 18:26:24 10° N 18:29:15 27° ENE 18:29:15 27° ENE
CSL-04 Rocket 4.0 18:24:20 10° S 18:29:51 70° WSW 18:35:23 10° NNW
Cosmos 1844 Rocket 2.7 18:24:19 10° NNW 18:29:55 79° WSW 18:35:28 10° SSE
Cosmos 2366 rocket 4.3 18:24:16 10° SSE 18:30:12 44° E 18:36:11 10° NNE
FALCON 9 DEB 3.6 18:27:49 10° WNW 18:30:55 44° N 18:31:45 35° NE
USA 308 3.6 18:29:45 10° WNW 18:33:53 45° N 18:35:51 26° ENE
Cosmos 1666 2.6 18:30:55 10° S 18:34:32 55° E 18:38:13 10° NNE
Cosmos 1777 Rocket 4.0 18:29:34 10° NNW 18:34:48 62° ENE 18:37:59 23° SE
Cosmos 2341 Rocket 3.9 18:32:17 10° S 18:38:34 77° E 18:44:51 10° NNE
Meteor 1-5 Rocket 4.0 18:33:34 10° S 18:38:54 73° E 18:44:27 10° NNE
SPOT 3 Rocket 4.3 18:37:59 29° E 18:39:00 31° ENE 18:43:35 10° N
Cosmos 2333 4.4 18:34:02 10° S 18:39:25 48° ESE 18:44:53 10° NE
Cosmos 1844 3.8 18:35:56 10° NNW 18:41:44 78° WSW 18:46:58 12° SSE
Okean 3 3.6 18:37:37 10° N 18:41:47 51° ENE 18:42:57 39° SE
Ariane Rocket 3.0 18:42:03 23° SE 18:45:12 62° ENE 18:50:15 10° N
Cosmos 2360 Rocket 2.1 18:39:54 10° SSW 18:45:33 89° ESE 18:51:17 10° NNE
Cosmos 2221 Rocket 4.4 18:42:00 10° N 18:45:39 33° ENE 18:45:39 33° ENE
Cosmos 2278 Rocket 2.9 18:42:05 10° NNW 18:47:18 35° NE 18:48:36 32° ENE
Cosmos 1727 Rocket 4.1 18:43:53 10° N 18:49:56 52° ENE 18:52:57 29° SE
Meteor 2-4 Rocket 4.4 18:47:36 10° NNW 18:53:19 58° W 18:59:06 10° S
Cosmos 1500 4.4 18:49:49 10° SSW 18:53:22 43° WNW 18:56:59 10° N
Cosmos 1703 Rocket 4.0 18:49:14 10° NNW 18:53:35 60° W 18:57:52 10° S
Cosmos 2333 Rocket 2.3 18:50:13 10° S 18:55:41 51° ESE 19:01:13 10° NE
Cosmos 2218 Rocket 3.9 18:50:48 10° S 18:57:09 71° E 19:03:32 10° NNE
ERBS 3.9 18:58:52 10° WNW 19:01:47 28° NNW 19:02:19 26° N
Cosmos 1943 Rocket 4.1 19:02:50 10° N 19:06:08 15° NNE 19:06:52 15° NE
Resurs 01 Rocket 2.2 19:12:41 43° NE 19:12:41 43° NE 19:16:08 10° N
Cosmos 864 Rocket 4.3 19:07:46 10° S 19:13:56 85° E 19:20:12 10° N
Cosmos 2322 Rocket 3.6 19:10:41 10° WSW 19:15:52 38° NW 19:21:07 10° NNE
SME Rocket 4.2 19:08:41 10° NNE 19:17:23 88° ESE 19:22:54 10° SSW
Lacrosse 4 Rocket 3.4 19:13:14 10° SSW 19:14:29 19° SSW 19:14:29 19° SSW
Cosmos 1959 Rocket 4.4 19:13:16 10° S 19:19:23 85° WNW 19:25:32 10° N
Cosmos 192 4.2 19:17:57 10° SSW 19:22:52 86° WNW 19:27:49 10° NNE
SJ-6B 4.0 19:22:30 25° SSW 19:24:26 43° W 19:28:19 10° NNW
COSMOS 2428 2.8 19:20:07 10° SSW 19:32:11 - NNE 19:24:51 56° SSE
ASTEX 1 3.5 19:21:46 10° N 19:26:40 73° W 19:30:11 19° SSW
Meteor 1-23 Rocket 4.1 19:23:37 10° NNW 19:29:14 90° E 19:30:27 57° S
Meteor 1-11 Rocket 3.8 19:26:58 10° SSW 19:32:41 74° WNW 19:38:19 10° N
Cosmos 2219 Rocket 2.0 19:27:05 10° SSW 19:32:41 83° ESE 19:38:20 10° NNE
OBJECT-B 2.9 19:36:26 26° WNW 19:36:26 26° WNW 19:38:40 10° NNW
Resurs 1-3 4.1 19:38:47 57° WSW 19:38:51 58° W 19:43:12 10° NNW
SeaSat 1 3.9 19:34:46 10° NNE 19:39:16 36° NW 19:43:44 10° WSW
Terra 4.1 19:42:56 14° NNE 19:42:56 14° NNE 19:43:53 10° NNE
SJ 16-02 2.0 19:36:15 10° NNW 19:39:35 51° NNW 19:39:35 51° NNW
SL-16 R/B 4.3 19:36:26 10° W 19:40:59 24° NW 19:45:34 10° NNE
USA 234 3.1 19:39:54 47° ENE 19:42:00 87° SSE 19:48:34 10° WSW
USA 281 4.4 19:47:39 27° NE 19:47:39 27° NE 19:52:52 10° NNW
Meteor 2-20 Rocket 4.3 19:42:36 10° N 19:48:45 89° E 19:49:08 80° SSE
Cosmos 2369 Rocket 4.1 19:47:40 10° N 19:50:42 17° NNE 19:50:42 17° NNE
BREEZE-M DEB (TANK) 3.5 19:49:11 10° W 19:51:09 45° W 19:51:09 45° W
USA 305 4.2 19:48:08 10° WNW 19:50:56 37° NW 19:50:56 37° NW
Cosmos 2322 4.1 19:47:10 10° SW 19:52:49 60° WNW 19:58:30 10° NNE
SL-4 R/B 4.4 19:53:15 10° W 19:54:13 17° W 19:54:13 17° W
Cosmos 1898 Rocket 4.3 19:54:13 10° NNW 19:57:51 43° N 19:57:51 43° N
Gbstr 26 Del rocket 3.9 19:56:56 10° WNW 20:00:59 62° WNW 20:00:59 62° WNW
ATLAS CENTAUR R/B 3.7 20:01:20 10° W 20:03:11 20° WNW 20:03:11 20° WNW
NOSS 3-3 (A) 4.5 20:10:40 10° NW 20:18:06 75° SW 20:18:42 71° SSW
NOSS 3-3 (C) 4.5 20:10:45 10° NW 20:18:12 75° SW 20:18:47 72° SSW
Cosmos 2360 Rocket 4.4 20:25:57 10° W 20:30:22 23° NW 20:34:47 10° N
Cosmos 2278 Rocket 3.2 20:26:07 10° NW 20:30:28 43° WNW 20:30:28 43° WNW
Cosmos 2333 Rocket 3.6 20:35:01 10° WSW 20:40:11 35° NW 20:45:26 10° NNE
Resurs 01 Rocket 4.3 20:50:14 17° WNW 20:50:14 17° WNW 20:51:57 10° NW
Cosmos 1943 Rocket 3.9 20:45:41 10° NNW 20:48:24 28° N 20:48:24 28° N
Cosmos 2219 Rocket 4.2 21:12:54 10° W 21:17:22 24° NW 21:21:50 10° NNE
USA 234 4.5 21:27:15 35° WNW 21:27:15 35° WNW 21:31:06 10° W
USA 281 4.5 21:34:30 35° NNW 21:34:30 35° NNW 21:38:02 10° NNW
Cosmos 2369 Rocket 4.5 21:30:55 10° NNW 21:32:29 19° NNW 21:32:29 19° NNW
